This is the latest recevied weather packets stored in our database for station/object KH6HHG. If no packets are shown the sender has not sent any weather packets the latest 10 day(s).
| Time | Temp. | Humidity | Pressure | Rain* | Wind** | Luminosity | Snow |
|---|---|---|---|---|---|---|---|
| 1777872097 | 20° C | 80% | 1013.7 hPa | 0 mm | - | - | - |
| 1777871797 | 20° C | 80% | 1013.6 hPa | 0 mm | - | - | - |
| 1777871497 | 20° C | 79% | 1013.7 hPa | 0 mm | - | - | - |
| 1777871197 | 20° C | 79% | 1013.7 hPa | 0 mm | - | - | - |
| 1777870897 | 20° C | 79% | 1013.5 hPa | 0 mm | - | - | - |
| 1777870597 | 20.56° C | 79% | 1013.5 hPa | 0 mm | - | - | - |
| 1777870297 | 20.56° C | 80% | 1013.5 hPa | 0 mm | - | - | - |
| 1777869997 | 20.56° C | 79% | 1013.4 hPa | 0 mm | - | - | - |
| 1777869697 | 20.56° C | 78% | 1013.2 hPa | 0 mm | - | - | - |
| 1777869397 | 21.11° C | 78% | 1013.2 hPa | 0 mm | - | - | - |
| 1777869097 | 21.11° C | 77% | 1013.1 hPa | 0 mm | - | - | - |
| 1777868797 | 21.11° C | 76% | 1013.1 hPa | 0 mm | - | - | - |
| 1777868497 | 21.11° C | 76% | 1012.9 hPa | 0 mm | - | - | - |
| 1777868197 | 21.67° C | 75% | 1012.9 hPa | 0 mm | - | - | - |
| 1777867897 | 21.67° C | 74% | 1012.9 hPa | 0 mm | - | - | - |
| 1777867597 | 22.22° C | 74% | 1012.8 hPa | 0 mm | - | - | - |
| 1777867297 | 22.22° C | 73% | 1012.7 hPa | 0 mm | - | - | - |
| 1777866997 | 22.22° C | 73% | 1012.6 hPa | 0 mm | - | - | - |
| 1777866697 | 22.22° C | 72% | 1012.6 hPa | 0 mm | - | - | - |
| 1777866397 | 22.22° C | 72% | 1012.5 hPa | 0 mm | - | - | - |
| 1777866097 | 22.78° C | 72% | 1012.4 hPa | 0 mm | - | - | - |
| 1777865797 | 22.78° C | 71% | 1012.4 hPa | 0 mm | - | - | - |
| 1777865497 | 23.33° C | 71% | 1012.4 hPa | 0 mm | - | - | - |
| 1777865197 | 22.78° C | 72% | 1012.3 hPa | 0 mm | - | - | - |
| 1777864897 | 22.78° C | 71% | 1012.3 hPa | 0 mm | - | - | - |
* Rain latest hour (hover to see other rain measurements)
** Current wind speed in m/s (hover to see current wind gust speed)